Location: T. Spence Memorial Observatory
(32.7356°N, 82.2098°W)
Time: 20:34:31
(UTC-04:00)

Cosmos 2219 - Visible Passes

Search period start: 06 May 2015 00:00
Search period end: 16 May 2015 00:00
Orbit: 835 x 859 km, 71.1° (Epoch: 05 May)

Date Brightness Start Highest point End Pass type
(mag) Time Alt. Az. Time Alt. Az. Time Alt. Az.
06 May 4.3 21:19:17 10° N 21:23:59 28° ENE 21:26:38 20° ESE visible
06 May 4.4 23:03:11 10° NW 23:08:10 32° WSW 23:08:35 32° WSW visible
07 May 4.3 21:05:55 10° N 21:10:34 27° ENE 21:13:59 16° ESE visible
07 May 4.4 22:49:45 10° NW 22:54:46 33° WSW 22:55:56 30° SW visible
08 May 4.4 20:52:33 10° N 20:57:09 26° ENE 21:01:24 12° ESE visible
08 May 4.4 22:36:20 10° NW 22:41:22 34° WSW 22:43:21 26° SW visible
09 May 4.4 20:39:11 10° N 20:43:45 26° ENE 20:48:25 10° ESE visible
09 May 4.4 22:22:55 10° NW 22:27:59 35° WSW 22:30:49 22° SSW visible
10 May 4.4 22:09:29 10° NW 22:14:35 36° WSW 22:18:20 16° SSW visible
11 May 4.4 21:56:04 10° NW 22:01:12 37° WSW 22:05:56 12° SSW visible
12 May 4.4 21:42:38 10° NW 21:47:49 38° WSW 21:52:55 10° S visible
13 May 4.4 21:29:13 10° NW 21:34:25 39° WSW 21:39:33 10° S visible
14 May 4.4 21:15:48 10° NW 21:21:01 40° WSW 21:26:12 10° S visible
15 May 4.4 21:02:23 10° NW 21:07:38 41° WSW 21:12:50 10° S visible
